Year,Month,Day,Hour,Minute,Value (Times are PST for temperature in C)
2022,04,17,00,00,-7.70
2022,04,17,00,01,-7.70
2022,04,17,00,02,-7.80
2022,04,17,00,03,-7.90
2022,04,17,00,04,-7.90
2022,04,17,00,05,-8.00
2022,04,17,00,06,-8.10
2022,04,17,00,07,-8.10
2022,04,17,00,08,-8.20
2022,04,17,00,09,-8.20
2022,04,17,00,10,-8.20
2022,04,17,00,11,-8.30
2022,04,17,00,12,-8.30
2022,04,17,00,13,-8.30
2022,04,17,00,14,-8.30
2022,04,17,00,15,-8.30
2022,04,17,00,16,-8.30
2022,04,17,00,17,-8.40
2022,04,17,00,18,-8.50
2022,04,17,00,19,-8.50
2022,04,17,00,20,-8.50
2022,04,17,00,21,-8.50
2022,04,17,00,22,-8.60
2022,04,17,00,23,-8.60
2022,04,17,00,24,-8.70
2022,04,17,00,25,-8.80
2022,04,17,00,26,-8.90
2022,04,17,00,27,-8.90
2022,04,17,00,28,-9.00
2022,04,17,00,29,-9.00
2022,04,17,00,30,-9.00
2022,04,17,00,31,-9.10
2022,04,17,00,32,-9.10
2022,04,17,00,33,-9.10
2022,04,17,00,34,-9.10
2022,04,17,00,35,-9.10
2022,04,17,00,36,-9.10
2022,04,17,00,37,-9.10
2022,04,17,00,38,-9.10
2022,04,17,00,39,-9.20
2022,04,17,00,40,-9.20
2022,04,17,00,41,-9.20
2022,04,17,00,42,-9.20
2022,04,17,00,43,-9.20
2022,04,17,00,44,-9.10
2022,04,17,00,45,-9.10
2022,04,17,00,46,-9.10
2022,04,17,00,47,-9.10
2022,04,17,00,48,-9.10
2022,04,17,00,49,-9.10
2022,04,17,00,50,-9.10
2022,04,17,00,51,-9.10
2022,04,17,00,52,-9.20
2022,04,17,00,53,-9.20
2022,04,17,00,54,-9.30
2022,04,17,00,55,-9.40
2022,04,17,00,56,-9.60
2022,04,17,00,57,-9.60
2022,04,17,00,58,-9.70
2022,04,17,00,59,-9.80
2022,04,17,01,00,-9.90
2022,04,17,01,01,-9.90
2022,04,17,01,02,-10.00
2022,04,17,01,03,-10.00
2022,04,17,01,04,-10.00
2022,04,17,01,05,-10.10
2022,04,17,01,06,-10.10
2022,04,17,01,07,-10.10
2022,04,17,01,08,-10.10
2022,04,17,01,09,-10.20
2022,04,17,01,10,-10.20
2022,04,17,01,11,-10.20
2022,04,17,01,12,-10.20
2022,04,17,01,13,-10.30
2022,04,17,01,14,-10.30
2022,04,17,01,15,-10.30
2022,04,17,01,16,-10.30
2022,04,17,01,17,-10.30
2022,04,17,01,18,-10.40
2022,04,17,01,19,-10.40
2022,04,17,01,20,-10.50
2022,04,17,01,21,-10.50
2022,04,17,01,22,-10.60
2022,04,17,01,23,-10.60
2022,04,17,01,24,-10.70
2022,04,17,01,25,-10.70
2022,04,17,01,26,-10.80
2022,04,17,01,27,-10.80
2022,04,17,01,28,-10.80
2022,04,17,01,29,-10.90
2022,04,17,01,30,-10.90
2022,04,17,01,31,-10.90
2022,04,17,01,32,-10.90
2022,04,17,01,33,-11.00
2022,04,17,01,34,-11.00
2022,04,17,01,35,-11.00
2022,04,17,01,36,-11.10
2022,04,17,01,37,-11.10
2022,04,17,01,38,-11.20
2022,04,17,01,39,-11.20
2022,04,17,01,40,-11.30
2022,04,17,01,41,-11.30
2022,04,17,01,42,-11.30
2022,04,17,01,43,-11.40
2022,04,17,01,44,-11.40
2022,04,17,01,45,-11.40
2022,04,17,01,46,-11.40
2022,04,17,01,47,-11.40
2022,04,17,01,48,-11.50
2022,04,17,01,49,-11.50
2022,04,17,01,50,-11.60
2022,04,17,01,51,-11.60
2022,04,17,01,52,-11.70
2022,04,17,01,53,-11.80
2022,04,17,01,54,-11.80
2022,04,17,01,55,-11.80
2022,04,17,01,56,-11.90
2022,04,17,01,57,-11.90
2022,04,17,01,58,-11.90
2022,04,17,01,59,-12.00
2022,04,17,02,00,-12.00
2022,04,17,02,01,-12.10
2022,04,17,02,02,-12.10
2022,04,17,02,03,-12.10
2022,04,17,02,04,-12.10
2022,04,17,02,05,-12.10
2022,04,17,02,06,-12.10
2022,04,17,02,07,-12.10
2022,04,17,02,08,-12.10
2022,04,17,02,09,-12.10
2022,04,17,02,10,-12.10
2022,04,17,02,11,-12.10
2022,04,17,02,12,-12.20
2022,04,17,02,13,-12.20
2022,04,17,02,14,-12.20
2022,04,17,02,15,-12.20
2022,04,17,02,16,-12.20
2022,04,17,02,17,-12.20
2022,04,17,02,18,-12.20
2022,04,17,02,19,-12.20
2022,04,17,02,20,-12.20
2022,04,17,02,21,-12.20
2022,04,17,02,22,-12.20
2022,04,17,02,23,-12.20
2022,04,17,02,24,-12.20
2022,04,17,02,25,-12.20
2022,04,17,02,26,-12.20
2022,04,17,02,27,-12.20
2022,04,17,02,28,-12.20
2022,04,17,02,29,-12.20
2022,04,17,02,30,-12.30
2022,04,17,02,31,-12.30
2022,04,17,02,32,-12.30
2022,04,17,02,33,-12.40
2022,04,17,02,34,-12.50
2022,04,17,02,35,-12.50
2022,04,17,02,36,-12.60
2022,04,17,02,37,-12.60
2022,04,17,02,38,-12.60
2022,04,17,02,39,-12.70
2022,04,17,02,40,-12.70
2022,04,17,02,41,-12.80
2022,04,17,02,42,-12.80
2022,04,17,02,43,-12.80
2022,04,17,02,44,-12.80
2022,04,17,02,45,-12.90
2022,04,17,02,46,-12.90
2022,04,17,02,47,-12.90
2022,04,17,02,48,-12.90
2022,04,17,02,49,-12.90
2022,04,17,02,50,-12.90
2022,04,17,02,51,-12.90
2022,04,17,02,52,-12.90
2022,04,17,02,53,-12.90
2022,04,17,02,54,-12.90
2022,04,17,02,55,-12.90
2022,04,17,02,56,-12.80
2022,04,17,02,57,-12.80
2022,04,17,02,58,-12.80
2022,04,17,02,59,-12.80
2022,04,17,03,00,-12.80
2022,04,17,03,01,-12.80
2022,04,17,03,02,-12.80
2022,04,17,03,03,-12.80
2022,04,17,03,04,-12.80
2022,04,17,03,05,-12.80
2022,04,17,03,06,-12.80
2022,04,17,03,07,-12.80
2022,04,17,03,08,-12.80
2022,04,17,03,09,-12.80
2022,04,17,03,10,-12.80
2022,04,17,03,11,-12.80
2022,04,17,03,12,-12.90
2022,04,17,03,13,-12.90
2022,04,17,03,14,-12.90
2022,04,17,03,15,-12.90
2022,04,17,03,16,-13.00
2022,04,17,03,17,-13.00
2022,04,17,03,18,-13.10
2022,04,17,03,19,-13.10
2022,04,17,03,20,-13.20
2022,04,17,03,21,-13.20
2022,04,17,03,22,-13.20
2022,04,17,03,23,-13.30
2022,04,17,03,24,-13.30
2022,04,17,03,25,-13.30
2022,04,17,03,26,-13.40
2022,04,17,03,27,-13.40
2022,04,17,03,28,-13.40
2022,04,17,03,29,-13.50
2022,04,17,03,30,-13.50
2022,04,17,03,31,-13.50
2022,04,17,03,32,-13.50
2022,04,17,03,33,-13.60
2022,04,17,03,34,-13.60
2022,04,17,03,35,-13.60
2022,04,17,03,36,-13.70
2022,04,17,03,37,-13.70
2022,04,17,03,38,-13.80
2022,04,17,03,39,-13.80
2022,04,17,03,40,-13.80
2022,04,17,03,41,-13.90
2022,04,17,03,42,-13.90
2022,04,17,03,43,-14.00
2022,04,17,03,44,-14.00
2022,04,17,03,45,-14.00
2022,04,17,03,46,-14.10
2022,04,17,03,47,-14.10
2022,04,17,03,48,-14.20
2022,04,17,03,49,-14.20
2022,04,17,03,50,-14.20
2022,04,17,03,51,-14.30
2022,04,17,03,52,-14.30
2022,04,17,03,53,-14.30
2022,04,17,03,54,-14.40
2022,04,17,03,55,-14.40
2022,04,17,03,56,-14.40
2022,04,17,03,57,-14.40
2022,04,17,03,58,-14.50
2022,04,17,03,59,-14.50
2022,04,17,04,00,-14.50
2022,04,17,04,01,-14.60
2022,04,17,04,02,-14.60
2022,04,17,04,03,-14.60
2022,04,17,04,04,-14.60
2022,04,17,04,05,-14.70
2022,04,17,04,06,-14.70
2022,04,17,04,07,-14.70
2022,04,17,04,08,-14.70
2022,04,17,04,09,-14.70
2022,04,17,04,10,-14.70
2022,04,17,04,11,-14.80
2022,04,17,04,12,-14.80
2022,04,17,04,13,-14.80
2022,04,17,04,14,-14.80
2022,04,17,04,15,-14.80
2022,04,17,04,16,-14.80
2022,04,17,04,17,-14.80
2022,04,17,04,18,-14.80
2022,04,17,04,19,-14.80
2022,04,17,04,20,-14.90
2022,04,17,04,21,-14.90
2022,04,17,04,22,-14.90
2022,04,17,04,23,-14.90
2022,04,17,04,24,-14.90
2022,04,17,04,25,-14.90
2022,04,17,04,26,-15.00
2022,04,17,04,27,-15.00
2022,04,17,04,28,-15.00
2022,04,17,04,29,-15.00
2022,04,17,04,30,-15.10
2022,04,17,04,31,-15.10
2022,04,17,04,32,-15.10
2022,04,17,04,33,-15.10
2022,04,17,04,34,-15.10
2022,04,17,04,35,-15.10
2022,04,17,04,36,-15.20
2022,04,17,04,37,-15.20
2022,04,17,04,38,-15.20
2022,04,17,04,39,-15.20
2022,04,17,04,40,-15.20
2022,04,17,04,41,-15.20
2022,04,17,04,42,-15.30
2022,04,17,04,43,-15.30
2022,04,17,04,44,-15.30
2022,04,17,04,45,-15.30
2022,04,17,04,46,-15.30
2022,04,17,04,47,-15.30
2022,04,17,04,48,-15.30
2022,04,17,04,49,-15.30
2022,04,17,04,50,-15.30
2022,04,17,04,51,-15.40
2022,04,17,04,52,-15.40
2022,04,17,04,53,-15.40
2022,04,17,04,54,-15.40
2022,04,17,04,55,-15.40
2022,04,17,04,56,-15.40
2022,04,17,04,57,-15.40
2022,04,17,04,58,-15.40
2022,04,17,04,59,-15.50
2022,04,17,05,00,-15.50
2022,04,17,05,01,-15.50
2022,04,17,05,02,-15.50
2022,04,17,05,03,-15.60
2022,04,17,05,04,-15.60
2022,04,17,05,05,-15.60
2022,04,17,05,06,-15.70
2022,04,17,05,07,-15.70
2022,04,17,05,08,-15.70
2022,04,17,05,09,-15.80
2022,04,17,05,10,-15.80
2022,04,17,05,11,-15.80
2022,04,17,05,12,-15.90
2022,04,17,05,13,-15.90
2022,04,17,05,14,-15.90
2022,04,17,05,15,-15.90
2022,04,17,05,16,-16.00
2022,04,17,05,17,-16.00
2022,04,17,05,18,-16.10
2022,04,17,05,19,-16.10
2022,04,17,05,20,-16.10
2022,04,17,05,21,-16.10
2022,04,17,05,22,-16.20
2022,04,17,05,23,-16.20
2022,04,17,05,24,-16.20
2022,04,17,05,25,-16.20
2022,04,17,05,26,-16.20
2022,04,17,05,27,-16.20
2022,04,17,05,28,-16.20
2022,04,17,05,29,-16.30
2022,04,17,05,30,-16.30
2022,04,17,05,31,-16.30
2022,04,17,05,32,-16.30
2022,04,17,05,33,-16.30
2022,04,17,05,34,-16.30
2022,04,17,05,35,-16.40
2022,04,17,05,36,-16.40
2022,04,17,05,37,-16.40
2022,04,17,05,38,-16.40
2022,04,17,05,39,-16.50
2022,04,17,05,40,-16.50
2022,04,17,05,41,-16.60
2022,04,17,05,42,-16.60
2022,04,17,05,43,-16.60
2022,04,17,05,44,-16.70
2022,04,17,05,45,-16.70
2022,04,17,05,46,-16.70
2022,04,17,05,47,-16.70
2022,04,17,05,48,-16.70
2022,04,17,05,49,-16.70
2022,04,17,05,50,-16.70
2022,04,17,05,51,-16.70
2022,04,17,05,52,-16.70
2022,04,17,05,53,-16.70
2022,04,17,05,54,-16.70
2022,04,17,05,55,-16.70
2022,04,17,05,56,-16.70
2022,04,17,05,57,-16.70
2022,04,17,05,58,-16.70
2022,04,17,05,59,-16.70
2022,04,17,06,00,-16.70
2022,04,17,06,01,-16.70
2022,04,17,06,02,-16.70
2022,04,17,06,03,-16.70
2022,04,17,06,04,-16.70
2022,04,17,06,05,-16.70
2022,04,17,06,06,-16.80
2022,04,17,06,07,-16.80
2022,04,17,06,08,-16.80
2022,04,17,06,09,-16.80
2022,04,17,06,10,-16.80
2022,04,17,06,11,-16.80
2022,04,17,06,12,-16.80
2022,04,17,06,13,-16.80
2022,04,17,06,14,-16.90
2022,04,17,06,15,-16.90
2022,04,17,06,16,-16.90
2022,04,17,06,17,-16.90
2022,04,17,06,18,-16.90
2022,04,17,06,19,-16.90
2022,04,17,06,20,-17.00
2022,04,17,06,21,-17.00
2022,04,17,06,22,-17.00
2022,04,17,06,23,-17.10
2022,04,17,06,24,-17.10
2022,04,17,06,25,-17.10
2022,04,17,06,26,-17.10
2022,04,17,06,27,-17.10
2022,04,17,06,28,-17.20
2022,04,17,06,29,-17.20
2022,04,17,06,30,-17.20
2022,04,17,06,31,-17.20
2022,04,17,06,32,-17.20
2022,04,17,06,33,-17.30
2022,04,17,06,34,-17.30
2022,04,17,06,35,-17.30
2022,04,17,06,36,-17.30
2022,04,17,06,37,-17.30
2022,04,17,06,38,-17.30
2022,04,17,06,39,-17.40
2022,04,17,06,40,-17.40
2022,04,17,06,41,-17.40
2022,04,17,06,42,-17.40
2022,04,17,06,43,-17.40
2022,04,17,06,44,-17.40
2022,04,17,06,45,-17.40
2022,04,17,06,46,-17.50
2022,04,17,06,47,-17.50
2022,04,17,06,48,-17.50
2022,04,17,06,49,-17.50
2022,04,17,06,50,-17.60
2022,04,17,06,51,-17.60
2022,04,17,06,52,-17.60
2022,04,17,06,53,-17.60
2022,04,17,06,54,-17.60
2022,04,17,06,55,-17.60
2022,04,17,06,56,-17.60
2022,04,17,06,57,-17.60
2022,04,17,06,58,-17.60
2022,04,17,06,59,-17.60
2022,04,17,07,00,-17.70
2022,04,17,07,01,-17.70
2022,04,17,07,02,-17.70
2022,04,17,07,03,-17.70
2022,04,17,07,04,-17.70
2022,04,17,07,05,-17.80
2022,04,17,07,06,-17.80
2022,04,17,07,07,-17.80
2022,04,17,07,08,-17.80
2022,04,17,07,09,-17.80
2022,04,17,07,10,-17.80
2022,04,17,07,11,-17.80
2022,04,17,07,12,-17.80
2022,04,17,07,13,-17.80
2022,04,17,07,14,-17.80
2022,04,17,07,15,-17.80
2022,04,17,07,16,-17.90
2022,04,17,07,17,-17.90
2022,04,17,07,18,-17.90
2022,04,17,07,19,-17.90
2022,04,17,07,20,-17.90
2022,04,17,07,21,-17.90
2022,04,17,07,22,-17.90
2022,04,17,07,23,-17.90
2022,04,17,07,24,-18.00
2022,04,17,07,25,-18.00
2022,04,17,07,26,-18.00
2022,04,17,07,27,-18.00
2022,04,17,07,28,-18.00
2022,04,17,07,29,-18.00
2022,04,17,07,30,-18.10
2022,04,17,07,31,-18.10
2022,04,17,07,32,-18.10
2022,04,17,07,33,-18.10
2022,04,17,07,34,-18.10
2022,04,17,07,35,-18.10
2022,04,17,07,36,-18.10
2022,04,17,07,37,-18.10
2022,04,17,07,38,-18.10
2022,04,17,07,39,-18.10
2022,04,17,07,40,-18.20
2022,04,17,07,41,-18.20
2022,04,17,07,42,-18.20
2022,04,17,07,43,-18.20
2022,04,17,07,44,-18.20
2022,04,17,07,45,-18.20
2022,04,17,07,46,-18.20
2022,04,17,07,47,-18.20
2022,04,17,07,48,-18.20
2022,04,17,07,49,-18.20
2022,04,17,07,50,-18.20
2022,04,17,07,51,-18.20
2022,04,17,07,52,-18.20
2022,04,17,07,53,-18.20
2022,04,17,07,54,-18.20
2022,04,17,07,55,-18.30
2022,04,17,07,56,-18.30
2022,04,17,07,57,-18.30
2022,04,17,07,58,-18.30
2022,04,17,07,59,-18.30
2022,04,17,08,00,-18.30
2022,04,17,08,01,-18.30
2022,04,17,08,02,-18.30
2022,04,17,08,03,-18.40
2022,04,17,08,04,-18.40
2022,04,17,08,05,-18.40
2022,04,17,08,06,-18.40
2022,04,17,08,07,-18.40
2022,04,17,08,08,-18.40
2022,04,17,08,09,-18.40
2022,04,17,08,10,-18.40
2022,04,17,08,11,-18.40
2022,04,17,08,12,-18.40
2022,04,17,08,13,-18.40
2022,04,17,08,14,-18.40
2022,04,17,08,15,-18.40
2022,04,17,08,16,-18.40
2022,04,17,08,17,-18.40
2022,04,17,08,18,-18.40
2022,04,17,08,19,-18.40
2022,04,17,08,20,-18.40
2022,04,17,08,21,-18.40
2022,04,17,08,22,-18.40
2022,04,17,08,23,-18.40
2022,04,17,08,24,-18.40
2022,04,17,08,25,-18.30
2022,04,17,08,26,-18.30
2022,04,17,08,27,-18.30
2022,04,17,08,28,-18.30
2022,04,17,08,29,-18.30
2022,04,17,08,30,-18.30
2022,04,17,08,31,-18.30
2022,04,17,08,32,-18.30
2022,04,17,08,33,-18.30
2022,04,17,08,34,-18.30
2022,04,17,08,35,-18.30
2022,04,17,08,36,-18.30
2022,04,17,08,37,-18.30
2022,04,17,08,38,-18.20
2022,04,17,08,39,-18.20
2022,04,17,08,40,-18.20
2022,04,17,08,41,-18.20
2022,04,17,08,42,-18.20
2022,04,17,08,43,-18.20
2022,04,17,08,44,-18.20
2022,04,17,08,45,-18.10
2022,04,17,08,46,-18.10
2022,04,17,08,47,-18.10
2022,04,17,08,48,-18.10
2022,04,17,08,49,-18.10
2022,04,17,08,50,-18.10
2022,04,17,08,51,-18.10
2022,04,17,08,52,-18.10
2022,04,17,08,53,-18.10
2022,04,17,08,54,-18.10
2022,04,17,08,55,-18.10
2022,04,17,08,56,-18.00
2022,04,17,08,57,-18.00
2022,04,17,08,58,-18.00
2022,04,17,08,59,-17.90
2022,04,17,09,00,-17.90
2022,04,17,09,01,-17.90
2022,04,17,09,02,-17.90
2022,04,17,09,03,-17.80
2022,04,17,09,04,-17.80
2022,04,17,09,05,-17.80
2022,04,17,09,06,-17.80
2022,04,17,09,07,-17.80
2022,04,17,09,08,-17.80
2022,04,17,09,09,-17.80
2022,04,17,09,10,-17.80
2022,04,17,09,11,-17.80
2022,04,17,09,12,-17.80
2022,04,17,09,13,-17.80
2022,04,17,09,14,-17.80
2022,04,17,09,15,-17.70
2022,04,17,09,16,-17.70
2022,04,17,09,17,-17.70
2022,04,17,09,18,-17.70
2022,04,17,09,19,-17.70
2022,04,17,09,20,-17.70
2022,04,17,09,21,-17.70
2022,04,17,09,22,-17.70
2022,04,17,09,23,-17.60
2022,04,17,09,24,-17.60
2022,04,17,09,25,-17.60
2022,04,17,09,26,-17.60
2022,04,17,09,27,-17.50
2022,04,17,09,28,-17.50
2022,04,17,09,29,-17.40
2022,04,17,09,30,-17.30
2022,04,17,09,31,-17.30
2022,04,17,09,32,-17.20
2022,04,17,09,33,-17.10
2022,04,17,09,34,-17.00
2022,04,17,09,35,-16.90
2022,04,17,09,36,-16.80
2022,04,17,09,37,-16.60
2022,04,17,09,38,-16.50
2022,04,17,09,39,-16.40
2022,04,17,09,40,-16.30
2022,04,17,09,41,-16.20
2022,04,17,09,42,-16.10
2022,04,17,09,43,-16.00
2022,04,17,09,44,-15.90
2022,04,17,09,45,-15.80
2022,04,17,09,46,-15.80
2022,04,17,09,47,-15.70
2022,04,17,09,48,-15.60
2022,04,17,09,49,-15.50
2022,04,17,09,50,-15.50
2022,04,17,09,51,-15.40
2022,04,17,09,52,-15.30
2022,04,17,09,53,-15.20
2022,04,17,09,54,-15.20
2022,04,17,09,55,-15.00
2022,04,17,09,56,-15.00
2022,04,17,09,57,-14.90
2022,04,17,09,58,-14.80
2022,04,17,09,59,-14.70
2022,04,17,10,00,-14.70
2022,04,17,10,01,-14.60
2022,04,17,10,02,-14.40
2022,04,17,10,03,-14.30
2022,04,17,10,04,-14.20
2022,04,17,10,05,-14.20
2022,04,17,10,06,-14.10
2022,04,17,10,07,-14.10
2022,04,17,10,08,-14.00
2022,04,17,10,09,-14.00
2022,04,17,10,10,-13.90
2022,04,17,10,11,-13.90
2022,04,17,10,12,-13.80
2022,04,17,10,13,-13.70
2022,04,17,10,14,-13.70
2022,04,17,10,15,-13.60
2022,04,17,10,16,-13.60
2022,04,17,10,17,-13.50
2022,04,17,10,18,-13.40
2022,04,17,10,19,-13.30
2022,04,17,10,20,-13.30
2022,04,17,10,21,-13.20
2022,04,17,10,22,-13.10
2022,04,17,10,23,-13.10
2022,04,17,10,24,-13.00
2022,04,17,10,25,-13.00
2022,04,17,10,26,-12.90
2022,04,17,10,27,-12.80
2022,04,17,10,28,-12.80
2022,04,17,10,29,-12.70
2022,04,17,10,30,-12.70
2022,04,17,10,31,-12.60
2022,04,17,10,32,-12.50
2022,04,17,10,33,-12.40
2022,04,17,10,34,-12.30
2022,04,17,10,35,-12.30
2022,04,17,10,36,-12.30
2022,04,17,10,37,-12.30
2022,04,17,10,38,-12.20
2022,04,17,10,39,-12.20
2022,04,17,10,40,-12.20
2022,04,17,10,41,-12.20
2022,04,17,10,42,-12.20
2022,04,17,10,43,-12.20
2022,04,17,10,44,-12.10
2022,04,17,10,45,-12.10
2022,04,17,10,46,-12.10
2022,04,17,10,47,-12.10
2022,04,17,10,48,-12.10
2022,04,17,10,49,-12.00
2022,04,17,10,50,-12.00
2022,04,17,10,51,-11.90
2022,04,17,10,52,-11.90
2022,04,17,10,53,-11.90
2022,04,17,10,54,-11.90
2022,04,17,10,55,-11.80
2022,04,17,10,56,-11.80
2022,04,17,10,57,-11.70
2022,04,17,10,58,-11.70
2022,04,17,10,59,-11.60
2022,04,17,11,00,-11.60
2022,04,17,11,01,-11.50
2022,04,17,11,02,-11.40
2022,04,17,11,03,-11.40
2022,04,17,11,04,-11.30
2022,04,17,11,05,-11.30
2022,04,17,11,06,-11.30
2022,04,17,11,07,-11.20
2022,04,17,11,08,-11.20
2022,04,17,11,09,-11.10
2022,04,17,11,10,-11.00
2022,04,17,11,11,-11.00
2022,04,17,11,12,-10.90
2022,04,17,11,13,-10.90
2022,04,17,11,14,-10.80
2022,04,17,11,15,-10.70
2022,04,17,11,16,-10.60
2022,04,17,11,17,-10.50
2022,04,17,11,18,-10.40
2022,04,17,11,19,-10.40
2022,04,17,11,20,-10.30
2022,04,17,11,21,-10.30
2022,04,17,11,22,-10.20
2022,04,17,11,23,-10.20
2022,04,17,11,24,-10.10
2022,04,17,11,25,-10.10
2022,04,17,11,26,-10.00
2022,04,17,11,27,-10.00
2022,04,17,11,28,-9.90
2022,04,17,11,29,-9.90
2022,04,17,11,30,-9.80
2022,04,17,11,31,-9.80
2022,04,17,11,32,-9.80
2022,04,17,11,33,-9.70
2022,04,17,11,34,-9.60
2022,04,17,11,35,-9.40
2022,04,17,11,36,-9.30
2022,04,17,11,37,-9.10
2022,04,17,11,38,-9.00
2022,04,17,11,39,-8.80
2022,04,17,11,40,-8.70
2022,04,17,11,41,-8.50
2022,04,17,11,42,-8.40
2022,04,17,11,43,-8.20
2022,04,17,11,44,-8.10
2022,04,17,11,45,-7.90
2022,04,17,11,46,-7.80
2022,04,17,11,47,-7.70
2022,04,17,11,48,-7.50
2022,04,17,11,49,-7.40
2022,04,17,11,50,-7.40
2022,04,17,11,51,-7.40
2022,04,17,11,52,-7.40
2022,04,17,11,53,-7.40
2022,04,17,11,54,-7.40
2022,04,17,11,55,-7.30
2022,04,17,11,56,-7.40
2022,04,17,11,57,-7.50
2022,04,17,11,58,-7.50
2022,04,17,11,59,-7.60
2022,04,17,12,00,-7.60
2022,04,17,12,01,-7.60
2022,04,17,12,02,-7.60
2022,04,17,12,03,-7.60
2022,04,17,12,04,-7.60
2022,04,17,12,05,-7.60
2022,04,17,12,06,-7.50
2022,04,17,12,07,-7.40
2022,04,17,12,08,-7.30
2022,04,17,12,09,-7.10
2022,04,17,12,10,-7.00
2022,04,17,12,11,-6.90
2022,04,17,12,12,-6.80
2022,04,17,12,13,-6.70
2022,04,17,12,14,-6.60
2022,04,17,12,15,-6.50
2022,04,17,12,16,-6.40
2022,04,17,12,17,-6.30
2022,04,17,12,18,-6.30
2022,04,17,12,19,-6.20
2022,04,17,12,20,-6.20
2022,04,17,12,21,-6.10
2022,04,17,12,22,-6.00
2022,04,17,12,23,-5.90
2022,04,17,12,24,-5.80
2022,04,17,12,25,-5.70
2022,04,17,12,26,-5.60
2022,04,17,12,27,-5.50
2022,04,17,12,28,-5.40
2022,04,17,12,29,-5.30
2022,04,17,12,30,-5.20
2022,04,17,12,31,-5.20
2022,04,17,12,32,-5.20
2022,04,17,12,33,-5.20
2022,04,17,12,34,-5.30
2022,04,17,12,35,-5.40
2022,04,17,12,36,-5.40
2022,04,17,12,37,-5.40
2022,04,17,12,38,-5.40
2022,04,17,12,39,-5.40
2022,04,17,12,40,-5.40
2022,04,17,12,41,-5.30
2022,04,17,12,42,-5.20
2022,04,17,12,43,-5.10
2022,04,17,12,44,-5.00
2022,04,17,12,45,-5.00
2022,04,17,12,46,-4.90
2022,04,17,12,47,-4.80
2022,04,17,12,48,-4.70
2022,04,17,12,49,-4.60
2022,04,17,12,50,-4.50
2022,04,17,12,51,-4.40
2022,04,17,12,52,-4.30
2022,04,17,12,53,-4.20
2022,04,17,12,54,-4.20
2022,04,17,12,55,-4.10
2022,04,17,12,56,-4.10
2022,04,17,12,57,-4.10
2022,04,17,12,58,-4.20
2022,04,17,12,59,-4.20
2022,04,17,13,00,-4.10
2022,04,17,13,01,-4.10
2022,04,17,13,02,-4.10
2022,04,17,13,03,-4.00
2022,04,17,13,04,-4.00
2022,04,17,13,05,-4.00
2022,04,17,13,06,-4.10
2022,04,17,13,07,-4.10
2022,04,17,13,08,-4.10
2022,04,17,13,09,-4.10
2022,04,17,13,10,-4.10
2022,04,17,13,11,-4.10
2022,04,17,13,12,-4.20
2022,04,17,13,13,-4.10
2022,04,17,13,14,-4.10
2022,04,17,13,15,-4.10
2022,04,17,13,16,-4.10
2022,04,17,13,17,-4.10
2022,04,17,13,18,-4.10
2022,04,17,13,19,-4.10
2022,04,17,13,20,-4.00
2022,04,17,13,21,-4.00
2022,04,17,13,22,-3.90
2022,04,17,13,23,-3.80
2022,04,17,13,24,-3.70
2022,04,17,13,25,-3.70
2022,04,17,13,26,-3.60
2022,04,17,13,27,-3.50
2022,04,17,13,28,-3.50
2022,04,17,13,29,-3.40
2022,04,17,13,30,-3.20
2022,04,17,13,31,-3.10
2022,04,17,13,32,-3.00
2022,04,17,13,33,-2.80
2022,04,17,13,34,-2.60
2022,04,17,13,35,-2.40
2022,04,17,13,36,-2.20
2022,04,17,13,37,-2.10
2022,04,17,13,38,-2.00
2022,04,17,13,39,-1.80
2022,04,17,13,40,-1.70
2022,04,17,13,41,-1.70
2022,04,17,13,42,-1.60
2022,04,17,13,43,-1.50
2022,04,17,13,44,-1.50
2022,04,17,13,45,-1.50
2022,04,17,13,46,-1.50
2022,04,17,13,47,-1.50
2022,04,17,13,48,-1.40
2022,04,17,13,49,-1.40
2022,04,17,13,50,-1.40
2022,04,17,13,51,-1.40
2022,04,17,13,52,-1.40
2022,04,17,13,53,-1.30
2022,04,17,13,54,-1.30
2022,04,17,13,55,-1.40
2022,04,17,13,56,-1.50
2022,04,17,13,57,-1.50
2022,04,17,13,58,-1.50
2022,04,17,13,59,-1.40
2022,04,17,14,00,-1.40
2022,04,17,14,01,-1.40
2022,04,17,14,02,-1.30
2022,04,17,14,03,-1.30
2022,04,17,14,04,-1.20
2022,04,17,14,05,-1.10
2022,04,17,14,06,-1.00
2022,04,17,14,07,-1.00
2022,04,17,14,08,-1.00
2022,04,17,14,09,-0.90
2022,04,17,14,10,-0.90
2022,04,17,14,11,-0.90
2022,04,17,14,12,-0.80
2022,04,17,14,13,-0.80
2022,04,17,14,14,-0.80
2022,04,17,14,15,-0.70
2022,04,17,14,16,-0.70
2022,04,17,14,17,-0.70
2022,04,17,14,18,-0.70
2022,04,17,14,19,-0.70
2022,04,17,14,20,-0.60
2022,04,17,14,21,-0.60
2022,04,17,14,22,-0.50
2022,04,17,14,23,-0.50
2022,04,17,14,24,-0.40
2022,04,17,14,25,-0.40
2022,04,17,14,26,-0.30
2022,04,17,14,27,-0.20
2022,04,17,14,28,-0.20
2022,04,17,14,29,-0.10
2022,04,17,14,30,-0.10
2022,04,17,14,31,0.00
2022,04,17,14,32,-0.10
2022,04,17,14,33,-0.10
2022,04,17,14,34,-0.10
2022,04,17,14,35,-0.10
2022,04,17,14,36,-0.20
2022,04,17,14,37,-0.20
2022,04,17,14,38,-0.20
2022,04,17,14,39,-0.20
2022,04,17,14,40,-0.10
2022,04,17,14,41,-0.10
2022,04,17,14,42,-0.10
2022,04,17,14,43,0.00
2022,04,17,14,44,0.10
2022,04,17,14,45,0.10
2022,04,17,14,46,0.20
2022,04,17,14,47,0.20
2022,04,17,14,48,0.20
2022,04,17,14,49,0.20
2022,04,17,14,50,0.20
2022,04,17,14,51,0.20
2022,04,17,14,52,0.20
2022,04,17,14,53,0.30
2022,04,17,14,54,0.30
2022,04,17,14,55,0.30
2022,04,17,14,56,0.20
2022,04,17,14,57,0.20
2022,04,17,14,58,0.30
2022,04,17,14,59,0.30
2022,04,17,15,00,0.30
2022,04,17,15,01,0.30
2022,04,17,15,02,0.30
2022,04,17,15,03,0.30
2022,04,17,15,04,0.30
2022,04,17,15,05,0.30
2022,04,17,15,06,0.30
2022,04,17,15,07,0.30
2022,04,17,15,08,0.30
2022,04,17,15,09,0.30
2022,04,17,15,10,0.40
2022,04,17,15,11,0.40
2022,04,17,15,12,0.40
2022,04,17,15,13,0.40
2022,04,17,15,14,0.40
2022,04,17,15,15,0.40
2022,04,17,15,16,0.50
2022,04,17,15,17,0.50
2022,04,17,15,18,0.50
2022,04,17,15,19,0.50
2022,04,17,15,20,0.40
2022,04,17,15,21,0.50
2022,04,17,15,22,0.50
2022,04,17,15,23,0.50
2022,04,17,15,24,0.50
2022,04,17,15,25,0.50
2022,04,17,15,26,0.50
2022,04,17,15,27,0.50
2022,04,17,15,28,0.50
2022,04,17,15,29,0.50
2022,04,17,15,30,0.50
2022,04,17,15,31,0.50
2022,04,17,15,32,0.50
2022,04,17,15,33,0.50
2022,04,17,15,34,0.50
2022,04,17,15,35,0.50
2022,04,17,15,36,0.60
2022,04,17,15,37,0.60
2022,04,17,15,38,0.60
2022,04,17,15,39,0.60
2022,04,17,15,40,0.60
2022,04,17,15,41,0.60
2022,04,17,15,42,0.70
2022,04,17,15,43,0.70
2022,04,17,15,44,0.70
2022,04,17,15,45,0.70
2022,04,17,15,46,0.70
2022,04,17,15,47,0.70
2022,04,17,15,48,0.70
2022,04,17,15,49,0.70
2022,04,17,15,50,0.80
2022,04,17,15,51,0.80
2022,04,17,15,52,0.80
2022,04,17,15,53,0.80
2022,04,17,15,54,0.80
2022,04,17,15,55,0.70
2022,04,17,15,56,0.70
2022,04,17,15,57,0.70
2022,04,17,15,58,0.70
2022,04,17,15,59,0.70
2022,04,17,16,00,0.70
2022,04,17,16,01,0.70
2022,04,17,16,02,0.70
2022,04,17,16,03,0.80
2022,04,17,16,04,0.80
2022,04,17,16,05,0.70
2022,04,17,16,06,0.70
2022,04,17,16,07,0.70
2022,04,17,16,08,0.70
2022,04,17,16,09,0.70
2022,04,17,16,10,0.70
2022,04,17,16,11,0.70
2022,04,17,16,12,0.70
2022,04,17,16,13,0.70
2022,04,17,16,14,0.80
2022,04,17,16,15,0.80
2022,04,17,16,16,0.80
2022,04,17,16,17,0.80
2022,04,17,16,18,0.80
2022,04,17,16,19,0.80
2022,04,17,16,20,0.80
2022,04,17,16,21,0.80
2022,04,17,16,22,0.80
2022,04,17,16,23,0.80
2022,04,17,16,24,0.80
2022,04,17,16,25,0.70
2022,04,17,16,26,0.70
2022,04,17,16,27,0.70
2022,04,17,16,28,0.60
2022,04,17,16,29,0.60
2022,04,17,16,30,0.60
2022,04,17,16,31,0.60
2022,04,17,16,32,0.70
2022,04,17,16,33,0.70
2022,04,17,16,34,0.70
2022,04,17,16,35,0.70
2022,04,17,16,36,0.70
2022,04,17,16,37,0.70
2022,04,17,16,38,0.80
2022,04,17,16,39,0.80
2022,04,17,16,40,0.90
2022,04,17,16,41,0.90
2022,04,17,16,42,1.00
2022,04,17,16,43,1.00
2022,04,17,16,44,1.10
2022,04,17,16,45,1.10
2022,04,17,16,46,1.20
2022,04,17,16,47,1.30
2022,04,17,16,48,1.30
2022,04,17,16,49,1.30
2022,04,17,16,50,1.20
2022,04,17,16,51,1.20
2022,04,17,16,52,1.20
2022,04,17,16,53,1.10
2022,04,17,16,54,1.10
2022,04,17,16,55,1.10
2022,04,17,16,56,1.20
2022,04,17,16,57,1.20
2022,04,17,16,58,1.20